Regional Weather Roundup
Issued by NWS Burlington, VT

Home | Current Version | Previous Version | Text Only | Print | Product List | Glossary On
Versions: 1 2 3 4 5 6 7 8 9 10 11 12 13 14 15 16 17 18 19 20 21 22 23 24 25 26 27 28 29 30 31 32 33 34 35 36 37 38 39 40 41 42 43 44 45 46 47 48 49 50
000
ASUS41 KBTV 012030
RWRBTV
VERMONT REGIONAL WEATHER ROUNDUP
NATIONAL WEATHER SERVICE BURLINGTON VT
400 PM EDT TUE SEP 01 2015

NOTE: "FAIR" INDICATES FEW OR NO CLOUDS BELOW 12,000 FEET WITH NO
SIGNIFICANT WEATHER AND/OR OBSTRUCTIONS TO VISIBILITY.

* THESE REPORTS ARE NOT UNDER NWS QUALITY CONTROL AND/OR DO NOT
  REPORT WEATHER SUCH AS PRECIPITATION AND FOG.

VTZ001>019-012100-
_____VERMONT_____


CITY           SKY/WX    TMP DP  RH WIND       PRES   REMARKS
BURLINGTON     MOSUNNY   84  56  38 S5        30.01F
MONTPELIER     SUNNY     80  57  45 VRB5      30.08F
MORRISVILLE    SUNNY     84  56  38 S7        30.04F
ST. JOHNSBURY*   N/A     80  56  43 MISG      30.01F
LYNDONVILLE*   FAIR      78  58  50 CALM      30.06F
MIDDLEBURY*    FAIR      85  46  25 SW3       30.01F
RUTLAND*       SUNNY    N/A N/A N/A NW5       30.04F
SPRINGFIELD    SUNNY     83  58  42 SE6       30.02F
HIGHGATE*      FAIR      81  60  48 SW5       30.00F
NEWPORT*       FAIR      77  61  56 S3        30.04S
BENNINGTON     SUNNY     83  60  45 S5        30.04F
SUTTON*          N/A     77 N/A N/A MISG        N/A
GALLUP MILLS*    N/A     77 N/A N/A MISG        N/A
MT. MANSFIELD*   N/A     68 N/A N/A W8          N/A

_____LAKE CHAMPLAIN_____


CITY           SKY/WX    TMP DP  RH WIND       PRES   REMARKS
COLCHESTER RF*   N/A     79  59  50 SE9         N/A
DIAMOND ISL*     N/A     81  63  54 N2          N/A

$$

NYZ007-026>031-035-052-083-012100-
_____NORTHERN NEW YORK_____


CITY           SKY/WX    TMP DP  RH WIND       PRES   REMARKS
PLATTSBURGH    SUNNY     80  57  45 SE9       30.00F
SARANAC LAKE   SUNNY     82  55  39 W7        30.05F
MASSENA        SUNNY     83  66  56 SW5       30.00F
OGDENSBURG*    SUNNY     81  70  69 SW8       30.01S
POTSDAM*       MOSUNNY   81  70  69 W14       30.01S
STARK FALLS*     N/A     84 N/A N/A W8          N/A
WATERTOWN      SUNNY     76  68  76 W10       30.04F
FT DRUM        MOSUNNY   79  68  67 W9        30.04S
ALBANY         MOSUNNY   86  61  42 SE3       30.02F
GLENS FALLS    SUNNY     85  59  41 E7        30.01F

$$
NHZ002-005-011-012100-
_____NEW HAMPSHIRE_____


CITY           SKY/WX    TMP DP  RH WIND       PRES   REMARKS
LEBANON        SUNNY     83  56  39 CALM      30.02F
KEENE          SUNNY     82  55  39 W5        30.03S
MT WASHINGTON  MOSUNNY   63  25  23 N7          N/A
PLYMOUTH       FAIR      82  55  40 CALM      30.01F
WHITEFIELD     SUNNY     79  52  38 W6        30.04F

$$

_____REGIONAL QUEBEC LOCATIONS_____


CITY           SKY/WX    TMP DP  RH WIND       PRES   REMARKS
MONTREAL       PTSUNNY   81  64  57 SW12      29.98F
QUEBEC CITY    PTSUNNY   73  57  56 SW10      29.98F
SHERBROOKE     SUNNY     75  55  50 W8        30.03S

_____REGIONAL ONTARIO LOCATIONS_____


CITY           SKY/WX    TMP DP  RH WIND       PRES   REMARKS
OTTAWA         MOSUNNY   82  68  61 SW9       29.99F

______KEY______
VSB  - VISIBILITY IN MILES
WCI  - WIND CHILL INDEX
HX   - HEAT INDEX
$$
NNNN


USA.gov is the U.S. government's official web portal to all federal, state and local government web resources and services.